����������;��������(kVARh)
2016-11-21 00:00;0
2016-11-21 00:15;0
2016-11-21 00:30;0
2016-11-21 00:45;0
2016-11-21 01:00;0
2016-11-21 01:15;0
2016-11-21 01:30;0
2016-11-21 01:45;0
2016-11-21 02:00;0,05
2016-11-21 02:15;0
2016-11-21 02:30;0
2016-11-21 02:45;0
2016-11-21 03:00;0
2016-11-21 03:15;0
2016-11-21 03:30;0
2016-11-21 03:45;0
2016-11-21 04:00;0
2016-11-21 04:15;0
2016-11-21 04:30;0
2016-11-21 04:45;0
2016-11-21 05:00;0
2016-11-21 05:15;0
2016-11-21 05:30;0
2016-11-21 05:45;0
2016-11-21 06:00;0
2016-11-21 06:15;0
2016-11-21 06:30;0
2016-11-21 06:45;0
2016-11-21 07:00;0
2016-11-21 07:15;0
2016-11-21 07:30;0
2016-11-21 07:45;0
2016-11-21 08:00;0
2016-11-21 08:15;0
2016-11-21 08:30;0
2016-11-21 08:45;0
2016-11-21 09:00;0,65
2016-11-21 09:15;0,5
2016-11-21 09:30;0,2
2016-11-21 09:45;0
2016-11-21 10:00;0
2016-11-21 10:15;0,1
2016-11-21 10:30;0
2016-11-21 10:45;0,6
2016-11-21 11:00;0,75
2016-11-21 11:15;2,2
2016-11-21 11:30;1,35
2016-11-21 11:45;2,35
2016-11-21 12:00;2,1
2016-11-21 12:15;1,25
2016-11-21 12:30;0,65
2016-11-21 12:45;0
2016-11-21 13:00;1,1
2016-11-21 13:15;0
2016-11-21 13:30;0,25
2016-11-21 13:45;0,05
2016-11-21 14:00;0,4
2016-11-21 14:15;0,1
2016-11-21 14:30;0,3
2016-11-21 14:45;0,1
2016-11-21 15:00;0,3
2016-11-21 15:15;1,25
2016-11-21 15:30;0,65
2016-11-21 15:45;0,55
2016-11-21 16:00;0,1
2016-11-21 16:15;0,1
2016-11-21 16:30;0
2016-11-21 16:45;0,1
2016-11-21 17:00;0
2016-11-21 17:15;0,05
2016-11-21 17:30;0
2016-11-21 17:45;0,75
2016-11-21 18:00;3,85
2016-11-21 18:15;2,3
2016-11-21 18:30;1,8
2016-11-21 18:45;2,6
2016-11-21 19:00;0,35
2016-11-21 19:15;0,05
2016-11-21 19:30;0,15
2016-11-21 19:45;0
2016-11-21 20:00;0,2
2016-11-21 20:15;0
2016-11-21 20:30;0,05
2016-11-21 20:45;0,15
2016-11-21 21:00;0
2016-11-21 21:15;0,35
2016-11-21 21:30;0
2016-11-21 21:45;0,05
2016-11-21 22:00;0
2016-11-21 22:15;0
2016-11-21 22:30;0
2016-11-21 22:45;0,05
2016-11-21 23:00;0
2016-11-21 23:15;0
2016-11-21 23:30;0
2016-11-21 23:45;0
2016-11-22 00:00;0
2016-11-22 00:15;0
2016-11-22 00:30;0,05
2016-11-22 00:45;0
2016-11-22 01:00;0
2016-11-22 01:15;0
2016-11-22 01:30;0
2016-11-22 01:45;0
2016-11-22 02:00;0
2016-11-22 02:15;0
2016-11-22 02:30;0
2016-11-22 02:45;0
2016-11-22 03:00;0
2016-11-22 03:15;0
2016-11-22 03:30;0
2016-11-22 03:45;0,05
2016-11-22 04:00;0
2016-11-22 04:15;0
2016-11-22 04:30;0
2016-11-22 04:45;0
2016-11-22 05:00;0
2016-11-22 05:15;0
2016-11-22 05:30;0
2016-11-22 05:45;0
2016-11-22 06:00;0
2016-11-22 06:15;0
2016-11-22 06:30;0,2
2016-11-22 06:45;0
2016-11-22 07:00;0
2016-11-22 07:15;0
2016-11-22 07:30;0,05
2016-11-22 07:45;0
2016-11-22 08:00;2,1
2016-11-22 08:15;2,25
2016-11-22 08:30;3,5
2016-11-22 08:45;8,45
2016-11-22 09:00;11,05
2016-11-22 09:15;16,3
2016-11-22 09:30;26,05
2016-11-22 09:45;32,35
2016-11-22 10:00;37,75
2016-11-22 10:15;38,4
2016-11-22 10:30;38,35
2016-11-22 10:45;41,3
2016-11-22 11:00;43,75
2016-11-22 11:15;46,55
2016-11-22 11:30;45,9
2016-11-22 11:45;45,3
2016-11-22 12:00;42,3
2016-11-22 12:15;42,2
2016-11-22 12:30;41
2016-11-22 12:45;41
2016-11-22 13:00;40,3
2016-11-22 13:15;40,9
2016-11-22 13:30;38,45
2016-11-22 13:45;38,95
2016-11-22 14:00;42,2
2016-11-22 14:15;41,7
2016-11-22 14:30;40,65
2016-11-22 14:45;41,85
2016-11-22 15:00;41,6
2016-11-22 15:15;39,6
2016-11-22 15:30;37,4
2016-11-22 15:45;35,95
2016-11-22 16:00;32,15
2016-11-22 16:15;29,8
2016-11-22 16:30;31,5
2016-11-22 16:45;27,7
2016-11-22 17:00;23,2
2016-11-22 17:15;24,7
2016-11-22 17:30;19,1
2016-11-22 17:45;19,9
2016-11-22 18:00;23,8
2016-11-22 18:15;21,5
2016-11-22 18:30;20,25
2016-11-22 18:45;20,1
2016-11-22 19:00;20,25
2016-11-22 19:15;12,9
2016-11-22 19:30;11,85
2016-11-22 19:45;7,8
2016-11-22 20:00;5,95
2016-11-22 20:15;4,7
2016-11-22 20:30;5,5
2016-11-22 20:45;5,15
2016-11-22 21:00;3,45
2016-11-22 21:15;7,85
2016-11-22 21:30;9,25
2016-11-22 21:45;7,45
2016-11-22 22:00;3,25
2016-11-22 22:15;0
2016-11-22 22:30;0
2016-11-22 22:45;0
2016-11-22 23:00;0,1
2016-11-22 23:15;0
2016-11-22 23:30;0
2016-11-22 23:45;0
2016-11-23 00:00;0
2016-11-23 00:15;0,15
2016-11-23 00:30;0
2016-11-23 00:45;0
2016-11-23 01:00;0,35
2016-11-23 01:15;0,2
2016-11-23 01:30;0
2016-11-23 01:45;0,1
2016-11-23 02:00;0
2016-11-23 02:15;0
2016-11-23 02:30;0,05
2016-11-23 02:45;0
2016-11-23 03:00;0
2016-11-23 03:15;0
2016-11-23 03:30;0
2016-11-23 03:45;0
2016-11-23 04:00;0
2016-11-23 04:15;0
2016-11-23 04:30;0
2016-11-23 04:45;0
2016-11-23 05:00;0,05
2016-11-23 05:15;0
2016-11-23 05:30;0
2016-11-23 05:45;0
2016-11-23 06:00;0
2016-11-23 06:15;0
2016-11-23 06:30;0
2016-11-23 06:45;0
2016-11-23 07:00;0
2016-11-23 07:15;0,25
2016-11-23 07:30;0,05
2016-11-23 07:45;1,25
2016-11-23 08:00;2,3
2016-11-23 08:15;0,15
2016-11-23 08:30;4,35
2016-11-23 08:45;8,95
2016-11-23 09:00;10,45
2016-11-23 09:15;8,45
2016-11-23 09:30;9
2016-11-23 09:45;15,6
2016-11-23 10:00;18,1
2016-11-23 10:15;20,4
2016-11-23 10:30;21,85
2016-11-23 10:45;29,05
2016-11-23 11:00;36,6
2016-11-23 11:15;38,6
2016-11-23 11:30;40,95
2016-11-23 11:45;41,65
2016-11-23 12:00;39,8
2016-11-23 12:15;39,2
2016-11-23 12:30;38,3
2016-11-23 12:45;37,1
2016-11-23 13:00;35,3
2016-11-23 13:15;38,15
2016-11-23 13:30;38,75
2016-11-23 13:45;34,9
2016-11-23 14:00;35
2016-11-23 14:15;39,1
2016-11-23 14:30;38,7
2016-11-23 14:45;38,35
2016-11-23 15:00;37,5
2016-11-23 15:15;36,3
2016-11-23 15:30;34,05
2016-11-23 15:45;34,55
2016-11-23 16:00;35,75
2016-11-23 16:15;34,5
2016-11-23 16:30;34,9
2016-11-23 16:45;38,2
2016-11-23 17:00;37,3
2016-11-23 17:15;37,75
2016-11-23 17:30;32,55
2016-11-23 17:45;28,4
2016-11-23 18:00;28,15
2016-11-23 18:15;24,15
2016-11-23 18:30;19,45
2016-11-23 18:45;18,55
2016-11-23 19:00;19,55
2016-11-23 19:15;10,55
2016-11-23 19:30;11,15
2016-11-23 19:45;11,75
2016-11-23 20:00;10,8
2016-11-23 20:15;9
2016-11-23 20:30;9,35
2016-11-23 20:45;8,45
2016-11-23 21:00;7,3
2016-11-23 21:15;5,9
2016-11-23 21:30;6
2016-11-23 21:45;4,85
2016-11-23 22:00;3,4
2016-11-23 22:15;1,3
2016-11-23 22:30;0,1
2016-11-23 22:45;0,2
2016-11-23 23:00;0,25
2016-11-23 23:15;0
2016-11-23 23:30;0
2016-11-23 23:45;0,2
2016-11-24 00:00;0
2016-11-24 00:15;0
2016-11-24 00:30;0
2016-11-24 00:45;0
2016-11-24 01:00;0
2016-11-24 01:15;0
2016-11-24 01:30;0
2016-11-24 01:45;0
2016-11-24 02:00;0
2016-11-24 02:15;0
2016-11-24 02:30;0
2016-11-24 02:45;0,05
2016-11-24 03:00;0
2016-11-24 03:15;0
2016-11-24 03:30;0
2016-11-24 03:45;0,15
2016-11-24 04:00;0
2016-11-24 04:15;0
2016-11-24 04:30;0
2016-11-24 04:45;0
2016-11-24 05:00;0
2016-11-24 05:15;0
2016-11-24 05:30;0
2016-11-24 05:45;0,2
2016-11-24 06:00;0
2016-11-24 06:15;0
2016-11-24 06:30;0
2016-11-24 06:45;0
2016-11-24 07:00;0
2016-11-24 07:15;0
2016-11-24 07:30;0
2016-11-24 07:45;0
2016-11-24 08:00;0,3
2016-11-24 08:15;1,9
2016-11-24 08:30;4,25
2016-11-24 08:45;6,7
2016-11-24 09:00;14,15
2016-11-24 09:15;16,9
2016-11-24 09:30;20,5
2016-11-24 09:45;42,1
2016-11-24 10:00;50,3
2016-11-24 10:15;52,7
2016-11-24 10:30;48,5
2016-11-24 10:45;48,95
2016-11-24 11:00;45,1
2016-11-24 11:15;40,45
2016-11-24 11:30;41,2
2016-11-24 11:45;47,45
2016-11-24 12:00;42,4
2016-11-24 12:15;50,45
2016-11-24 12:30;49,8
2016-11-24 12:45;50,2
2016-11-24 13:00;48
2016-11-24 13:15;51,7
2016-11-24 13:30;52,25
2016-11-24 13:45;52,95
2016-11-24 14:00;50,65
2016-11-24 14:15;46,55
2016-11-24 14:30;56,65
2016-11-24 14:45;51,05
2016-11-24 15:00;53,2
2016-11-24 15:15;48,15
2016-11-24 15:30;51,75
2016-11-24 15:45;45,4
2016-11-24 16:00;43,95
2016-11-24 16:15;46,6
2016-11-24 16:30;47,3
2016-11-24 16:45;40,25
2016-11-24 17:00;44,65
2016-11-24 17:15;46,9
2016-11-24 17:30;38,5
2016-11-24 17:45;31,95
2016-11-24 18:00;29,65
2016-11-24 18:15;25,65
2016-11-24 18:30;25,7
2016-11-24 18:45;23,6
2016-11-24 19:00;21,25
2016-11-24 19:15;23,05
2016-11-24 19:30;18
2016-11-24 19:45;18,2
2016-11-24 20:00;18,55
2016-11-24 20:15;16
2016-11-24 20:30;14,95
2016-11-24 20:45;15
2016-11-24 21:00;12,5
2016-11-24 21:15;15,3
2016-11-24 21:30;11,9
2016-11-24 21:45;7,65
2016-11-24 22:00;9,2
2016-11-24 22:15;8,5
2016-11-24 22:30;6
2016-11-24 22:45;7,35
2016-11-24 23:00;5,9
2016-11-24 23:15;2,45
2016-11-24 23:30;0,05
2016-11-24 23:45;0,3
2016-11-25 00:00;0
2016-11-25 00:15;0,35
2016-11-25 00:30;1,05
2016-11-25 00:45;1,1
2016-11-25 01:00;0,85
2016-11-25 01:15;1,25
2016-11-25 01:30;1,25
2016-11-25 01:45;0,95
2016-11-25 02:00;1,4
2016-11-25 02:15;0,3
2016-11-25 02:30;0
2016-11-25 02:45;0
2016-11-25 03:00;0
2016-11-25 03:15;0,35
2016-11-25 03:30;0
2016-11-25 03:45;0,05
2016-11-25 04:00;0
2016-11-25 04:15;0,4
2016-11-25 04:30;0
2016-11-25 04:45;0,1
2016-11-25 05:00;0
2016-11-25 05:15;1,2
2016-11-25 05:30;5,1
2016-11-25 05:45;5,9
2016-11-25 06:00;5,85
2016-11-25 06:15;9,45
2016-11-25 06:30;10,6
2016-11-25 06:45;13,75
2016-11-25 07:00;3,8
2016-11-25 07:15;6,95
2016-11-25 07:30;5,2
2016-11-25 07:45;6
2016-11-25 08:00;9,25
2016-11-25 08:15;15,8
2016-11-25 08:30;10,65
2016-11-25 08:45;21,15
2016-11-25 09:00;18,45
2016-11-25 09:15;25,25
2016-11-25 09:30;28,7
2016-11-25 09:45;26,25
2016-11-25 10:00;30,25
2016-11-25 10:15;33,05
2016-11-25 10:30;33
2016-11-25 10:45;31,5
2016-11-25 11:00;37,15
2016-11-25 11:15;36,05
2016-11-25 11:30;36,65
2016-11-25 11:45;31,55
2016-11-25 12:00;34,2
2016-11-25 12:15;32,05
2016-11-25 12:30;36,6
2016-11-25 12:45;35,45
2016-11-25 13:00;30,05
2016-11-25 13:15;32,7
2016-11-25 13:30;36,55
2016-11-25 13:45;29,3
2016-11-25 14:00;29,95
2016-11-25 14:15;29,35
2016-11-25 14:30;33,35
2016-11-25 14:45;32,75
2016-11-25 15:00;30,4
2016-11-25 15:15;34,6
2016-11-25 15:30;40
2016-11-25 15:45;35,45
2016-11-25 16:00;36,95
2016-11-25 16:15;38,45
2016-11-25 16:30;39,1
2016-11-25 16:45;38,8
2016-11-25 17:00;35,1
2016-11-25 17:15;31,85
2016-11-25 17:30;33,65
2016-11-25 17:45;23,4
2016-11-25 18:00;19,75
2016-11-25 18:15;18,55
2016-11-25 18:30;16,45
2016-11-25 18:45;20,7
2016-11-25 19:00;23,5
2016-11-25 19:15;17,85
2016-11-25 19:30;18,35
2016-11-25 19:45;14,15
2016-11-25 20:00;13,65
2016-11-25 20:15;14,95
2016-11-25 20:30;10,2
2016-11-25 20:45;8,4
2016-11-25 21:00;10,2
2016-11-25 21:15;10,55
2016-11-25 21:30;12,65
2016-11-25 21:45;13,75
2016-11-25 22:00;11,6
2016-11-25 22:15;14,7
2016-11-25 22:30;13,9
2016-11-25 22:45;13,6
2016-11-25 23:00;13,8
2016-11-25 23:15;11,6
2016-11-25 23:30;4,75
2016-11-25 23:45;0,9
2016-11-26 00:00;0,45
2016-11-26 00:15;0,6
2016-11-26 00:30;0,35
2016-11-26 00:45;0,1
2016-11-26 01:00;0,1
2016-11-26 01:15;0,95
2016-11-26 01:30;0,95
2016-11-26 01:45;1,15
2016-11-26 02:00;1,35
2016-11-26 02:15;1,3
2016-11-26 02:30;1,75
2016-11-26 02:45;1,9
2016-11-26 03:00;2,6
2016-11-26 03:15;2,7
2016-11-26 03:30;2,7
2016-11-26 03:45;2
2016-11-26 04:00;1,8
2016-11-26 04:15;1,6
2016-11-26 04:30;1,3
2016-11-26 04:45;2,25
2016-11-26 05:00;3,75
2016-11-26 05:15;8,25
2016-11-26 05:30;12,25
2016-11-26 05:45;12,8
2016-11-26 06:00;13,8
2016-11-26 06:15;11,65
2016-11-26 06:30;3,75
2016-11-26 06:45;7,05
2016-11-26 07:00;1,05
2016-11-26 07:15;6,55
2016-11-26 07:30;2,55
2016-11-26 07:45;3,55
2016-11-26 08:00;3,8
2016-11-26 08:15;0,45
2016-11-26 08:30;2
2016-11-26 08:45;0,6
2016-11-26 09:00;0,55
2016-11-26 09:15;1,45
2016-11-26 09:30;0,05
2016-11-26 09:45;0,05
2016-11-26 10:00;0
2016-11-26 10:15;0
2016-11-26 10:30;0,15
2016-11-26 10:45;0,45
2016-11-26 11:00;0,2
2016-11-26 11:15;0,5
2016-11-26 11:30;2,45
2016-11-26 11:45;1,1
2016-11-26 12:00;5,3
2016-11-26 12:15;1,55
2016-11-26 12:30;4,65
2016-11-26 12:45;2,4
2016-11-26 13:00;5,65
2016-11-26 13:15;1,15
2016-11-26 13:30;4,45
2016-11-26 13:45;0,45
2016-11-26 14:00;1,05
2016-11-26 14:15;0,4
2016-11-26 14:30;1,6
2016-11-26 14:45;1,95
2016-11-26 15:00;5,9
2016-11-26 15:15;5,65
2016-11-26 15:30;8,15
2016-11-26 15:45;9,15
2016-11-26 16:00;4,25
2016-11-26 16:15;7,9
2016-11-26 16:30;10,15
2016-11-26 16:45;12,25
2016-11-26 17:00;11,95
2016-11-26 17:15;18,7
2016-11-26 17:30;15,75
2016-11-26 17:45;9,6
2016-11-26 18:00;6,55
2016-11-26 18:15;6,4
2016-11-26 18:30;6,65
2016-11-26 18:45;8,2
2016-11-26 19:00;7,15
2016-11-26 19:15;7,95
2016-11-26 19:30;10,3
2016-11-26 19:45;13,35
2016-11-26 20:00;13
2016-11-26 20:15;13,4
2016-11-26 20:30;14,2
2016-11-26 20:45;14,45
2016-11-26 21:00;18,15
2016-11-26 21:15;22,35
2016-11-26 21:30;23,25
2016-11-26 21:45;23,05
2016-11-26 22:00;22,25
2016-11-26 22:15;21,9
2016-11-26 22:30;12,25
2016-11-26 22:45;11,5
2016-11-26 23:00;12,25
2016-11-26 23:15;12,65
2016-11-26 23:30;13,25
2016-11-26 23:45;11
2016-11-27 00:00;8,7
2016-11-27 00:15;7,45
2016-11-27 00:30;7,8
2016-11-27 00:45;7,9
2016-11-27 01:00;8,45
2016-11-27 01:15;9,05
2016-11-27 01:30;10,1
2016-11-27 01:45;10,1
2016-11-27 02:00;9,45
2016-11-27 02:15;11,05
2016-11-27 02:30;10,95
2016-11-27 02:45;12,15
2016-11-27 03:00;11,15
2016-11-27 03:15;11,95
2016-11-27 03:30;13,15
2016-11-27 03:45;13,4
2016-11-27 04:00;13,95
2016-11-27 04:15;13,25
2016-11-27 04:30;14,5
2016-11-27 04:45;14,15
2016-11-27 05:00;16,45
2016-11-27 05:15;20,4
2016-11-27 05:30;24,35
2016-11-27 05:45;25,45
2016-11-27 06:00;25,95
2016-11-27 06:15;20,75
2016-11-27 06:30;19,4
2016-11-27 06:45;20,15
2016-11-27 07:00;24,05
2016-11-27 07:15;21,55
2016-11-27 07:30;22,25
2016-11-27 07:45;22,5
2016-11-27 08:00;18,45
2016-11-27 08:15;18,4
2016-11-27 08:30;14,95
2016-11-27 08:45;11,3
2016-11-27 09:00;13,7
2016-11-27 09:15;8,45
2016-11-27 09:30;12,35
2016-11-27 09:45;8,35
2016-11-27 10:00;6,85
2016-11-27 10:15;6,05
2016-11-27 10:30;5,1
2016-11-27 10:45;9,15
2016-11-27 11:00;9
2016-11-27 11:15;4,75
2016-11-27 11:30;7,25
2016-11-27 11:45;4,9
2016-11-27 12:00;9
2016-11-27 12:15;3,95
2016-11-27 12:30;8,25
2016-11-27 12:45;7,65
2016-11-27 13:00;13,15
2016-11-27 13:15;14,35
2016-11-27 13:30;13,1
2016-11-27 13:45;14,25
2016-11-27 14:00;12,65
2016-11-27 14:15;17,7
2016-11-27 14:30;14,65
2016-11-27 14:45;18,1
2016-11-27 15:00;19,85
2016-11-27 15:15;21,35
2016-11-27 15:30;20,75
2016-11-27 15:45;21,6
2016-11-27 16:00;18,15
2016-11-27 16:15;13,8
2016-11-27 16:30;13,75
2016-11-27 16:45;14,55
2016-11-27 17:00;11,8
2016-11-27 17:15;12,45
2016-11-27 17:30;10,95
2016-11-27 17:45;12,35
2016-11-27 18:00;13,55
2016-11-27 18:15;11,6
2016-11-27 18:30;12,2
2016-11-27 18:45;14,1
2016-11-27 19:00;14,15
2016-11-27 19:15;14,1
2016-11-27 19:30;13,5
2016-11-27 19:45;13,5
2016-11-27 20:00;12,9
2016-11-27 20:15;10,95
2016-11-27 20:30;15,5
2016-11-27 20:45;17,1
2016-11-27 21:00;17,8
2016-11-27 21:15;19,5
2016-11-27 21:30;20,3
2016-11-27 21:45;14,45
2016-11-27 22:00;15,65
2016-11-27 22:15;15,7
2016-11-27 22:30;17,5
2016-11-27 22:45;14,2
2016-11-27 23:00;10,1
2016-11-27 23:15;10,6
2016-11-27 23:30;12,2
2016-11-27 23:45;14

